Regional Weather Roundup
Issued by NWS

Home | Current Version | Previous Version | Text Only | Print | Product List | Glossary Off
Versions: 1 2 3 4 5 6 7 8 9 10 11 12 13 14 15 16 17 18 19 20 21 22 23 24 25 26 27 28 29 30 31 32 33 34 35 36 37 38 39 40 41 42 43 44 45 46 47 48 49 50

000
ASUS45 KSLC 021010
RWRUT

UTAH REGIONAL WEATHER ROUNDUP
NATIONAL WEATHER SERVICE SALT LAKE CITY UT
400 AM MDT SUN AUG 02 2015

UTZ001>011-023>025-021100-

NORTHERN UTAH

CITY           SKY/WX    TMP DP  RH WIND       PRES   REMARKS
BRIGHAM CITY   CLEAR     65  40  38 CALM      30.00S
HILL AFB       CLEAR     69  37  30 E18       30.02S
LOGAN          CLEAR     57  41  55 N3        30.04R
OGDEN          CLEAR     69  38  32 S8        29.99S
PROVO AIRPORT  CLEAR     63  39  42 NE5       30.03R
SALT LAKE CITY PTCLDY    70  43  37 SE3       29.98R
VERNAL         CLEAR     65  40  39 W3        30.09S
WENDOVER       PTCLDY    79  28  15 E6        29.99R
HEBER CITY     CLEAR     50  41  71 CALM      30.13R
WEST JORDAN    CLEAR     70  39  32 CALM      30.01S

$$

UTZ012>022-026-027-021100-

SOUTHERN/CENTRAL UTAH

CITY           SKY/WX    TMP DP  RH WIND       PRES   REMARKS
BLANDING       CLOUDY    63  59  86 NE7       30.25R
BRYCE CANYON   CLOUDY    58  48  69 W5        30.27S
CEDAR CITY     CLOUDY    67  51  56 SW5       30.10F
DELTA          MOCLDY    69  44  40 SE5       30.02S
HANKSVILLE     PTCLDY    72  52  49 NE7       30.05S
MILFORD        CLOUDY    73  49  42 S10       30.04S
MOAB/CYNLANDS  CLEAR     71  51  49 NE6       30.05S
PRICE          PTCLDY    71  48  43 E7        30.14S
ST GEORGE      SUNNY     77  54  44 SE5       29.96S
KANAB          MOCLDY    64  55  72 CALM      30.15S

$$

REGIONAL REPORTS     COLORADO/ARIZONA

CITY           SKY/WX    TMP DP  RH WIND       PRES   REMARKS
CRAIG, CO      CLEAR     50  43  77 CALM      30.19R
GRAND JUNCTION MOCLDY    69  52  54 E10       30.09S
RIFLE          CLOUDY    66  48  52 E5        30.15S
MONTROSE       CLOUDY    66  53  63 SE10      30.19S
CORTEZ         MOCLDY    62  58  86 E3        30.18S
PAGE, AZ       CLOUDY    77  55  46 S5        30.03R
GRAND CANYON   CLOUDY    59  54  83 CALM      30.22S
KINGMAN        MOCLDY    71  55  56 CALM      30.00S
FLAGSTAFF      MOCLDY    56  53  90 CALM      30.26S

$$

REGIONAL REPORTS    NEVADA/IDAHO/WYOMING

CITY           SKY/WX    TMP DP  RH WIND       PRES   REMARKS
LAS VEGAS, NV  PTCLDY    79  55  43 SW6       29.88R
ELY            CLOUDY    66  42  41 NE3       30.21F
ELKO           PTCLDY    61  36  39 CALM      30.10R
POCATELLO, ID  CLEAR     59  40  49 NW3       30.03R
BURLEY         CLEAR     59  44  57 CALM      29.97S
EVANSTON, WY   PTCLDY    60  29  30 SE6       30.23S
ROCK SPRINGS   PTCLDY    59  25  27 S3        30.18S
KEMMERER       PTCLDY    54  30  40 N6        30.25R

$$



USA.gov is the U.S. government's official web portal to all federal, state and local government web resources and services.